Location: Azul
(36.7830°S, 59.8500°W)
Time: 23:27:32
(UTC-03:00)

STARS - Pass Details

Date: 23 October 2021
Orbit: 623 x 638 km, 98.2° (Epoch: 30 November)

Event Time Altitude Azimuth Distance (km) Brightness Sun altitude
Exits shadow 21:22:24 17° 132° (SE) 1,612 ? -22.3°
Drops below altitude 10° 21:24:21 10° 157° (SSE) 2,033 ? -22.6°
Sets 21:27:06 0° 174° (S) 2,947 ? -23.0°
